This demonstration page uses our WeatherBlox Daily Observations layout. Learn more.

Left ArrowRight Arrow

39.08367, -84.50855

Hourly Observations for May 4, 2016

Temp ( °F °C ) Dew Point ( °F °C ) Humidity (%) Winds ( mph kmh ) Pressure ( in mb ) Visibility ( mi km ) Precip ( " mm )
12:53 am 00:53 Clear 51 10.6 50 10 96 96 Calm 29.85 1011 10 16 0.00 0.00
1:53 am 01:53 Clear 49 9.4 49 9.4 100 100 Calm 29.83 1010 10 16 0.00 0.00
2:53 am 02:53 Clear 48 8.9 48 8.9 100 100 S 3 6 29.80 1009 10 16 0.00 0.00
3:53 am 03:53 Clear 48 8.9 48 8.9 100 100 S 3 6 29.78 1008 10 16 0.00 0.00
4:53 am 04:53 Mostly Cloudy 48 8.9 48 8.9 100 100 Calm 29.76 1008 10 16 0.00 0.00
5:53 am 05:53 Cloudy 49 9.4 48 8.9 97 97 Calm 29.75 1008 10 16 0.00 0.00
6:53 am 06:53 Cloudy 48 8.9 47 8.3 96 96 Calm 29.74 1007 10 16 0.00 0.00
7:53 am 07:53 Partly Cloudy 50 10 48 8.9 93 93 Calm 29.74 1007 10 16 0.00 0.00
8:53 am 08:53 Partly Cloudy 54 12.2 50 10 87 87 S 8 13 29.72 1006 10 16 0.00 0.00
9:53 am 09:53 Mostly Cloudy 60 15.6 48 8.9 65 65 SSW 10 17 29.70 1006 10 16 0.00 0.00
10:53 am 10:53 Cloudy 56 13.3 45 7.2 67 67 SW 12 19 29.70 1006 10 16 0.00 0.00
11:53 am 11:53 Cloudy with Light Rain 54 12.2 48 8.9 80 80 SW 13 20 29.70 1006 10 16 0.00 0.03
12:53 pm 12:53 Cloudy with Light Rain 54 12.2 49 9.4 83 83 SW 9 15 29.70 1006 10 16 0.01 0.25
1:53 pm 13:53 Cloudy 54 12.2 50 10 87 87 SW 9 15 29.68 1005 10 16 0.01 0.25
2:45 pm 14:45 Cloudy 54 12.2 49 9.4 83 83 WSW 10 17 29.68 1005 10 16 0.00 0.03
2:53 pm 14:53 Cloudy 54 12.2 50 10 87 87 SW 9 15 29.67 1005 10 16 0.00 0.03
3:53 pm 15:53 Cloudy with Light Rain 50 10 50 10 100 100 S 3 6 29.68 1005 7 11 0.07 1.78
4:53 pm 16:53 Mostly Cloudy 55 13 N/A N/A SW 6 9 29.67 1005 10 16 0.00 0.03
5:53 pm 17:53 Cloudy 58 14.4 44 6.7 60 60 NW 14 22 29.69 1005 10 16 0.00 0.03
6:53 pm 18:53 Mostly Cloudy 55 12.8 39 3.9 55 55 NW 9 15 29.71 1006 10 16 0.00 0.00
7:53 pm 19:53 Mostly Sunny 53 11.7 38 3.3 57 57 NW 12 19 29.73 1007 10 16 0.00 0.00
8:53 pm 20:53 Mostly Clear 50 10 38 3.3 63 63 N 14 22 29.76 1008 10 16 0.00 0.00
9:53 pm 21:53 Clear 48 8.9 38 3.3 68 68 NW 3 6 29.77 1008 10 16 0.00 0.00
10:53 pm 22:53 Mostly Cloudy 48 8.9 36 2.2 63 63 NNW 8 13 29.78 1008 10 16 0.00 0.00
11:53 pm 23:53 Mostly Cloudy 46 7.8 36 2.2 68 68 VRB 6 9 29.77 1008 10 16 0.00 0.00

Powered by AerisWeather